When you browse on this site, cookies collect data to enhance your experience and personalize the content and advertising you see.
Visit our Privacy Policy to learn more. By continuing to use the site, you agree to this use of cookies and data.
  • In Hungary
  • List of Countries
  • For 7 days
  • Water Temperature
  • Satellite Maps
  • Weather Map
  • News
  • Weather Widgets
  • user-avatar
    Login

    Hourly Weather Benicia

    Today, 17 June, Monday

    Time Temperature Precipitation Wind Pressure Humidity
    00:00 +14°C° 0 mm 2 mps 753 mmHg 82%
    01:00 +14°C° 0 mm 2 mps 753 mmHg 84%
    02:00 +14°C° 0 mm 2 mps 753 mmHg 84%
    03:00 +14°C° 0 mm 2 mps 753 mmHg 84%
    04:00 +14°C° 0 mm 1 mps 753 mmHg 84%
    05:00 +15°C° 0 mm 1 mps 753 mmHg 78%
    06:00 +18°C° 0 mm 1 mps 753 mmHg 72%
    07:00 +19°C° 0 mm 1 mps 753 mmHg 66%
    08:00 +22°C° 0 mm 1 mps 753 mmHg 58%
    09:00 +24°C° 0 mm 1 mps 753 mmHg 51%
    10:00 +27°C° 0 mm 1 mps 753 mmHg 44%
    11:00 +28°C° 0 mm 2 mps 753 mmHg 42%
    12:00 +29°C° 0 mm 3 mps 753 mmHg 40%
    13:00 +30°C° 0 mm 3 mps 753 mmHg 38%
    14:00 +29°C° 0 mm 4 mps 753 mmHg 40%
    15:00 +29°C° 0 mm 4 mps 752 mmHg 41%
    16:00 +28°C° 0 mm 4 mps 752 mmHg 42%
    17:00 +27°C° 0 mm 4 mps 752 mmHg 46%
    18:00 +25°C° 0 mm 4 mps 753 mmHg 50%
    19:00 +24°C° 0 mm 3 mps 753 mmHg 54%
    20:00 +21°C° 0 mm 3 mps 753 mmHg 58%
    21:00 +20°C° 0 mm 3 mps 753 mmHg 61%
    22:00 +19°C° 0 mm 2 mps 753 mmHg 65%
    23:00 +19°C° 0 mm 2 mps 753 mmHg 66%

    Tomorrow, 18 June, Tuesday

    Time Temperature Precipitation Wind Pressure Humidity
    00:00 +19°C° 0 mm 2 mps 753 mmHg 68%
    01:00 +19°C° 0 mm 1 mps 753 mmHg 69%
    02:00 +19°C° 0 mm 1 mps 753 mmHg 70%
    03:00 +19°C° 0 mm 1 mps 753 mmHg 71%
    04:00 +19°C° 0 mm 1 mps 754 mmHg 72%
    05:00 +20°C° 0 mm 1 mps 754 mmHg 67%
    06:00 +21°C° 0 mm 1 mps 754 mmHg 62%
    07:00 +23°C° 0 mm 1 mps 755 mmHg 58%
    08:00 +25°C° 0 mm 2 mps 755 mmHg 52%
    09:00 +27°C° 0 mm 2 mps 755 mmHg 45%
    10:00 +30°C° 0 mm 2 mps 755 mmHg 39%
    11:00 +30°C° 0 mm 3 mps 755 mmHg 38%
    12:00 +31°C° 0 mm 3 mps 755 mmHg 36%
    13:00 +33°C° 0 mm 4 mps 755 mmHg 35%
    14:00 +32°C° 0 mm 4 mps 754 mmHg 37%
    15:00 +30°C° 0 mm 5 mps 754 mmHg 39%
    16:00 +29°C° 0 mm 5 mps 754 mmHg 41%
    17:00 +27°C° 0 mm 5 mps 754 mmHg 47%
    18:00 +25°C° 0 mm 5 mps 754 mmHg 52%
    19:00 +22°C° 0 mm 4 mps 755 mmHg 57%
    20:00 +21°C° 0 mm 4 mps 755 mmHg 61%
    21:00 +20°C° 0 mm 4 mps 755 mmHg 66%
    22:00 +19°C° 0 mm 4 mps 755 mmHg 70%
    23:00 +18°C° 0 mm 3 mps 755 mmHg 73%

    Day after tomorrow, 19 June, Wednesday

    Time Temperature Precipitation Wind Pressure Humidity
    00:00 +18°C° 0 mm 3 mps 755 mmHg 76%
    01:00 +17°C° 0 mm 3 mps 755 mmHg 79%
    02:00 +17°C° 0 mm 3 mps 755 mmHg 80%
    03:00 +16°C° 0 mm 2 mps 755 mmHg 82%
    04:00 +16°C° 0 mm 2 mps 755 mmHg 84%
    05:00 +17°C° 0 mm 2 mps 755 mmHg 80%
    06:00 +18°C° 0 mm 2 mps 756 mmHg 75%
    07:00 +20°C° 0 mm 1 mps 756 mmHg 70%
    08:00 +21°C° 0 mm 2 mps 756 mmHg 62%
    09:00 +25°C° 0 mm 2 mps 756 mmHg 53%
    10:00 +27°C° 0 mm 2 mps 756 mmHg 45%
    11:00 +29°C° 0 mm 3 mps 756 mmHg 42%
    12:00 +30°C° 0 mm 3 mps 756 mmHg 40%
    13:00 +32°C° 0 mm 4 mps 755 mmHg 38%
    14:00 +30°C° 0 mm 4 mps 755 mmHg 40%
    15:00 +29°C° 0 mm 5 mps 755 mmHg 42%
    16:00 +28°C° 0 mm 5 mps 754 mmHg 44%
    17:00 +26°C° 0 mm 5 mps 755 mmHg 51%
    18:00 +23°C° 0 mm 5 mps 755 mmHg 57%
    19:00 +21°C° 0 mm 4 mps 755 mmHg 63%
    20:00 +20°C° 0 mm 4 mps 755 mmHg 68%
    21:00 +19°C° 0 mm 4 mps 755 mmHg 73%
    22:00 +17°C° 0 mm 4 mps 755 mmHg 79%
    23:00 +17°C° 0 mm 4 mps 755 mmHg 81%

    20 June, Thursday

    Time Temperature Precipitation Wind Pressure Humidity
    00:00 +15°C° 0 mm 4 mps 755 mmHg 83%
    01:00 +15°C° 0 mm 4 mps 755 mmHg 85%
    02:00 +16°C° 0 mm 3 mps 755 mmHg 86%
    03:00 +14°C° 0 mm 3 mps 755 mmHg 87%
    04:00 +14°C° 0 mm 3 mps 754 mmHg 88%
    05:00 +16°C° 0 mm 3 mps 754 mmHg 84%
    06:00 +17°C° 0 mm 3 mps 755 mmHg 80%
    07:00 +17°C° 0 mm 3 mps 755 mmHg 76%
    08:00 +19°C° 0 mm 3 mps 754 mmHg 68%
    09:00 +21°C° 0 mm 3 mps 754 mmHg 60%
    10:00 +24°C° 0 mm 3 mps 754 mmHg 52%
    11:00 +25°C° 0 mm 4 mps 754 mmHg 49%
    12:00 +25°C° 0 mm 4 mps 754 mmHg 45%
    13:00 +26°C° 0 mm 5 mps 754 mmHg 42%
    14:00 +26°C° 0 mm 5 mps 753 mmHg 42%
    15:00 +26°C° 0 mm 5 mps 753 mmHg 42%
    16:00 +25°C° 0 mm 5 mps 753 mmHg 42%
    17:00 +23°C° 0 mm 4 mps 753 mmHg 45%
    18:00 +21°C° 0 mm 4 mps 752 mmHg 49%
    19:00 +20°C° 0 mm 3 mps 752 mmHg 53%
    20:00 +19°C° 0 mm 3 mps 753 mmHg 56%
    21:00 +17°C° 0 mm 3 mps 753 mmHg 60%
    22:00 +16°C° 0 mm 3 mps 753 mmHg 64%
    23:00 +16°C° 0 mm 3 mps 752 mmHg 66%

    21 June, Friday

    Time Temperature Precipitation Wind Pressure Humidity
    00:00 +16°C° 0 mm 3 mps 752 mmHg 68%
    01:00 +14°C° 0 mm 3 mps 752 mmHg 71%
    02:00 +15°C° 0 mm 2 mps 752 mmHg 73%
    03:00 +14°C° 0 mm 2 mps 752 mmHg 75%
    04:00 +14°C° 0 mm 2 mps 752 mmHg 78%
    05:00 +15°C° 0 mm 2 mps 752 mmHg 72%
    06:00 +16°C° 0 mm 1 mps 752 mmHg 67%
    07:00 +18°C° 0 mm 1 mps 752 mmHg 62%
    08:00 +20°C° 0 mm 2 mps 753 mmHg 54%
    09:00 +23°C° 0 mm 2 mps 753 mmHg 45%
    10:00 +26°C° 0 mm 2 mps 753 mmHg 37%
    11:00 +27°C° 0 mm 2 mps 753 mmHg 34%
    12:00 +29°C° 0 mm 3 mps 752 mmHg 32%
    13:00 +30°C° 0 mm 3 mps 752 mmHg 30%
    14:00 +30°C° 0 mm 3 mps 752 mmHg 30%
    15:00 +30°C° 0 mm 4 mps 752 mmHg 29%
    16:00 +30°C° 0 mm 4 mps 751 mmHg 29%
    17:00 +28°C° 0 mm 3 mps 752 mmHg 32%
    18:00 +26°C° 0 mm 3 mps 752 mmHg 34%
    19:00 +25°C° 0 mm 3 mps 752 mmHg 37%
    20:00 +22°C° 0 mm 3 mps 752 mmHg 42%
    21:00 +21°C° 0 mm 2 mps 752 mmHg 47%
    22:00 +19°C° 0 mm 2 mps 752 mmHg 52%
    23:00 +18°C° 0 mm 2 mps 752 mmHg 56%

    22 June, Saturday

    Time Temperature Precipitation Wind Pressure Humidity
    00:00 +18°C° 0 mm 2 mps 752 mmHg 60%
    01:00 +17°C° 0 mm 2 mps 752 mmHg 63%
    02:00 +17°C° 0 mm 2 mps 753 mmHg 65%
    03:00 +16°C° 0 mm 2 mps 753 mmHg 66%
    04:00 +16°C° 0 mm 2 mps 753 mmHg 68%
    05:00 +17°C° 0 mm 2 mps 753 mmHg 64%
    06:00 +19°C° 0 mm 1 mps 753 mmHg 60%
    07:00 +20°C° 0 mm 1 mps 753 mmHg 55%
    08:00 +21°C° 0 mm 2 mps 754 mmHg 50%
    09:00 +24°C° 0 mm 2 mps 754 mmHg 44%
    10:00 +26°C° 0 mm 3 mps 754 mmHg 38%
    11:00 +27°C° 0 mm 3 mps 754 mmHg 37%
    12:00 +28°C° 0 mm 4 mps 754 mmHg 37%
    13:00 +28°C° 0 mm 4 mps 754 mmHg 36%
    14:00 +28°C° 0 mm 4 mps 753 mmHg 37%
    15:00 +27°C° 0 mm 5 mps 753 mmHg 39%
    16:00 +26°C° 0 mm 5 mps 753 mmHg 41%
    17:00 +23°C° 0 mm 4 mps 753 mmHg 46%
    18:00 +22°C° 0 mm 4 mps 753 mmHg 51%
    19:00 +20°C° 0 mm 4 mps 753 mmHg 56%
    20:00 +18°C° 0 mm 4 mps 753 mmHg 61%
    21:00 +17°C° 0 mm 3 mps 754 mmHg 67%
    22:00 +16°C° 0 mm 3 mps 754 mmHg 72%
    23:00 +14°C° 0 mm 3 mps 754 mmHg 74%
    Show more